Home > Weather > Spartanburg > Past weeks

Flag for USA Past Weather in Spartanburg, South Carolina, USA — Yesterday and Last 2 Weeks

Now
82 °F

Clear.


Feels Like: 86 °F
Forecast: 74 / 94 °F
Wind: No wind

Location: Spartanburg Memorial

Current Time: Jul 24, 2016 at 10:25:40 PM

Latest Report: Jul 24, 2016 at 9:55 PM


Visibility: 10 mi

Pressure: 30.03 "Hg

Humidity: 66%

Dew Point: 70 °F

Location of SpartanburgLocation

Past Weather in Spartanburg — Graph

°F

Spartanburg Temperature Yesterday

Maximum temperature yesterday: 95 °F (at 3:35 PM)
Minimum temperature yesterday: 70 °F (at 3:35 AM)
Average temperature yesterday: 79 °F

High & Low Weather Summary for the Past Weeks

 TemperatureHumidityPressure
High97 °F (Jul 14, 3:55 PM)100% (Jul 16, 11:35 PM)30.28 "Hg (Jul 16, 11:35 PM)
Low68 °F (Jul 10, 6:15 AM)22% (Jul 14, 6:35 PM)29.94 "Hg (Jul 9, 8:15 PM)
Average79 °F71%30.09 "Hg
* Reported Jul 9 8:15 PM — Jul 24 8:55 PM, Spartanburg, Weather by CustomWeather, © 2016

Note: Actual official high and low records may vary slightly from our data, if they occured in-between our weather recording intervals... More about our weather records

Advertising

Spartanburg Weather History for the Previous 24 Hours

Scroll right to see more
 ConditionsComfort  
Time TempWeatherWind HumidityBarometerVisibility
8:55 PM
Sun, Jul 24
86 °FScattered clouds.No wind55%30.01 "Hg10 mi
8:35 PM86 °FSunny.No wind59%30.01 "Hg10 mi
8:15 PM88 °FSunny.3 mph55%30.00 "Hg10 mi
7:55 PM90 °FSunny.No wind52%30.00 "Hg10 mi
7:35 PM91 °FSunny.No wind44%29.99 "Hg10 mi
7:15 PM91 °FSunny.No wind41%29.99 "Hg10 mi
6:55 PM93 °FSunny.3 mph36%29.99 "Hg10 mi
6:35 PM93 °FSunny.No wind39%30.00 "Hg7 mi
6:15 PM93 °FSunny.3 mph39%30.00 "Hg10 mi
5:55 PM95 °FSunny.5 mph36%30.00 "Hg7 mi
5:35 PM95 °FSunny.No wind34%30.00 "Hg10 mi
5:15 PM95 °FSunny.5 mph36%30.00 "Hg10 mi
4:55 PM95 °FSunny.3 mph36%30.00 "Hg10 mi
4:35 PM93 °FScattered clouds.8 mph39%30.00 "Hg10 mi
4:15 PM95 °FScattered clouds.7 mph36%30.01 "Hg10 mi
3:55 PM95 °FScattered clouds.3 mph39%30.01 "Hg10 mi
3:35 PM93 °FScattered clouds.6 mph39%30.01 "Hg10 mi
3:15 PM91 °FScattered clouds.7 mph44%30.02 "Hg10 mi
2:55 PM91 °FSunny.5 mph44%30.02 "Hg10 mi
2:35 PM91 °FSunny.5 mph46%30.03 "Hg10 mi
2:15 PM91 °FSunny.9 mph46%30.04 "Hg10 mi
1:55 PM90 °FSunny.6 mph46%30.05 "Hg10 mi
1:35 PM90 °FSunny.3 mph43%30.05 "Hg10 mi
1:15 PM90 °FSunny.3 mph49%30.05 "Hg10 mi
12:55 PM90 °FSunny.7 mph49%30.05 "Hg10 mi
12:35 PM88 °FSunny.8 mph52%30.06 "Hg10 mi
12:15 PM88 °FSunny.6 mph55%30.07 "Hg10 mi
11:55 AM88 °FSunny.6 mph55%30.06 "Hg10 mi
11:35 AM86 °FSunny.6 mph59%30.06 "Hg10 mi
10:55 AM84 °FSunny.3 mph62%30.06 "Hg10 mi
10:35 AM84 °FSunny.No wind58%30.05 "Hg10 mi
10:15 AM82 °FSunny.3 mph66%30.05 "Hg10 mi
9:55 AM82 °FSunny.No wind66%30.05 "Hg10 mi
9:35 AM81 °FSunny.No wind70%30.06 "Hg10 mi
9:15 AM79 °FSunny.No wind79%30.06 "Hg10 mi
8:55 AM79 °FSunny.No wind79%30.06 "Hg10 mi
8:35 AM77 °FSunny.No wind83%30.06 "Hg10 mi
8:15 AM77 °FSunny.No wind79%30.05 "Hg10 mi
7:55 AM73 °FSunny.No wind89%30.04 "Hg10 mi
7:35 AM72 °FSunny.No wind94%30.03 "Hg7 mi
7:15 AM72 °FClear.No wind94%30.03 "Hg7 mi
6:55 AM72 °FClear.No wind88%30.02 "Hg7 mi
6:35 AM70 °FClear.No wind94%30.02 "Hg7 mi
6:15 AM70 °FClear.No wind94%30.02 "Hg7 mi
5:55 AM72 °FClear.No wind88%30.02 "Hg10 mi
5:35 AM72 °FClear.No wind88%30.02 "Hg10 mi
5:15 AM72 °FClear.No wind88%30.02 "Hg10 mi
4:55 AM72 °FClear.No wind94%30.02 "Hg10 mi
4:35 AM72 °FClear.No wind94%30.01 "Hg10 mi
4:15 AM72 °FClear.No wind88%30.02 "Hg10 mi
3:55 AM72 °FClear.No wind88%30.01 "Hg10 mi
3:35 AM72 °FClear.No wind88%30.02 "Hg10 mi
3:15 AM72 °FClear.No wind94%30.02 "Hg10 mi
2:55 AM72 °FClear.No wind94%30.02 "Hg10 mi
2:35 AM72 °FClear.No wind94%30.02 "Hg10 mi
2:15 AM73 °FClear.No wind89%30.03 "Hg10 mi
1:55 AM73 °FClear.No wind89%30.02 "Hg10 mi
1:35 AM73 °FClear.No wind89%30.02 "Hg10 mi
1:15 AM73 °FClear.No wind89%30.02 "Hg10 mi
12:55 AM73 °FClear.No wind89%30.02 "Hg10 mi
12:35 AM73 °FClear.No wind89%30.02 "Hg10 mi
12:15 AM73 °FClear.No wind89%30.02 "Hg10 mi
11:55 PM
Sat, Jul 23
75 °FClear.No wind83%30.02 "Hg10 mi
11:35 PM75 °FClear.No wind83%30.01 "Hg10 mi
11:15 PM75 °FClear.No wind83%30.02 "Hg10 mi
10:55 PM77 °FClear.No wind79%30.01 "Hg10 mi
10:35 PM77 °FClear.No wind74%30.02 "Hg10 mi
Weather by CustomWeather, © 2016

See weather overviewHow to use our weather pages